www.pogodaiklimat.ru

Погода и климат >> Архив погоды >> Украина >> Золотоноша


ПОГОДА в Золотоноше

  • Прогноз погоды в Золотоноше
  • Монитор погоды в Золотоноше

АРХИВ ПОГОДЫ в Золотоноше

Время (UTC), дата Ветер
(напр.,м/с)
 
Видим.   Явления Облачность Т
(С)
Тd
(С)
f
(%)
Тe
(С)
Тes
(С)
Комфортность P
(гПа)
Po
(гПа)
Тmin
(С)
Tmax
(С)
R
(мм)
R24
(мм)
S
(см)
12 12.07 СЗ 3 10 км гроза без осадков {ливн. осадки} 9/9 600 м
[Cb cap]
+21.3 +12.5 57 +24 +25 комфорт 1007.2 996.0
15 12.07 ЮЗ 2 10 км в посл. час ливневой дождь {гроза} 9/6 600 м
[Cb cap Ci fib]
+20.9 +13.8 64 +24 +26 комфорт 1007.6 996.4
18 12.07 З 1 10 км {гроза, ливн. осадки} 8/4 600 м
[Sc diur, vesp Ac lent Ci fib]
+18.3 +13.0 71 +20 +20 1008.5 997.2 +22.6 0.0
00 13.07 штиль 0 10 км ясно +11.1 +9.7 91 +10 +10 1008.9 997.3
03 13.07 штиль 0 10 км 9/9 600 м
[Sc]
+10.5 +9.5 94 +10 +10 1009.1 997.5
06 13.07 СЗ 1 10 км ясно +16.7 +12.9 78 +18 +27 1009.3 997.9 +10.2
09 13.07 СЗ 2 10 км 8/8 600 м
[Cb calv]
+21.5 +13.6 61 +24 +27 комфорт 1009.1 997.9
12 13.07 СЗ 3 10 км 8/8 600 м
[Cb calv]
+23.1 +13.7 55 +26 +29 жарко 1008.3 997.2
15 13.07 С 5 10 км 6/5 600 м
[Cb calv Ci fib]
+23.3 +12.7 51 +26 +27 жарко 1008.6 997.5
18 13.07 СВ 1 10 км ясно +19.0 +12.2 65 +21 +21 комфорт 1009.6 998.3 +24.3
21 13.07 штиль 0 10 км ясно +13.3 +10.6 84 +13 +13 1010.3 998.8
00 14.07 штиль 0 10 км ясно +11.4 +9.6 89 +11 +11 1010.1 998.5
03 14.07 штиль 0 10 км 4/0
[Ac trans]
+10.4 +9.6 95 +10 +10 1010.0 998.4
06 14.07 ЮВ 1 10 км ясно +19.9 +12.7 63 +23 +32 комфорт 1009.8 998.6 +10.1
09 14.07 В 2 10 км 4/3 600 м
[Cu med, cong Ac cast Ci fib]
+24.1 +12.2 47 +26 +37 жарко 1009.2 998.1
12 14.07 СВ 2 10 км в посл. час гроза 9/4 600 м
[Cb calv Cs]
+22.1 +11.6 51 +24 +31 комфорт 1008.7 997.6
15 14.07 Ю 2 10 км в посл. час ливневой дождь 9/5 600 м
[Cb calv Ac cuf Cs]
+22.3 +14.5 61 +26 +27 жарко 1008.5 997.4
18 14.07 штиль 0 10 км {ливн. осадки} 9/8 600 м
[Cb calv Ac cuf]
+20.6 +15.9 74 +23 +23 комфорт 1008.8 997.6 +25.6 0.0
21 14.07 З 1 10 км 8/8 600 м
[Sc]
+17.8 +15.2 85 +19 +19 1009.3 998.0
00 15.07 штиль 0 10 км 10/10 720 м
[Sc]
+16.1 +14.2 88 +16 +16 1008.7 997.3
03 15.07 З 1 10 км 8/4 600 м
[Sc Ac lent Cc]
+14.7 +13.4 92 +15 +15 1008.3 996.9
06 15.07 С 1 10 км 9/8 600 м
[Sc Ac trans Ci fib]
+20.5 +13.4 64 +24 +25 комфорт 1008.4 997.2 +14.4
09 15.07 СЗ 2 10 км 9/6 600 м
[Cu med, cong Ac trans Ci fib]
+23.6 +14.3 56 +26 +30 жарко 1007.9 996.8
12 15.07 З 1 10 км 9/8 600 м
[Cb calv Ci fib]
+25.0 +13.4 49 +27 +30 жарко 1007.3 996.3
15 15.07 С 3 10 км в посл. час ливневой дождь 9/8 600 м
[Cb cap Ci fib]
+21.6 +14.5 64 +25 +25 комфорт 1009.1 997.9
18 15.07 СВ 2 10 км в посл. час ливневой дождь {гроза} 8/8 600 м
[Cb calv Ac cuf]
+16.8 +15.1 90 +17 +17 1009.0 997.6 +25.5 0.8
21 15.07 СЗ 1 10 км 8/8 600 м
[Cb calv]
+15.6 +14.9 96 +16 +16 1009.4 998.0
00 16.07 СЗ 1 10 км {гроза} 9/9 600 м
[Sc]
+15.1 +15.1 100 +16 +16 1009.5 998.1
03 16.07 СЗ 1 4000 м дымка 8/5 600 м
[Sc Ac trans Ci fib]
+14.8 +14.4 97 +15 +15 1008.9 997.5
06 16.07 С 2 10 км 8/6 600 м
[Sc Ac trans]
+16.4 +14.3 87 +16 +19 1009.2 997.8 +14.5
09 16.07 СЗ 4 10 км 9/9 600 м
[Cb calv]
+20.7 +15.3 71 +24 +25 комфорт 1008.7 997.5
12 16.07 СЗ 2 10 км 9/6 600 м
[Cb calv Ci fib]
+22.9 +14.3 58 +26 +31 жарко 1007.7 996.6
15 16.07 СВ 2 10 км 6/6 600 м
[Cb calv]
+23.8 +12.3 48 +26 +27 жарко 1007.1 996.0
18 16.07 СЗ 1 10 км 4/1 600 м
[Cu hum Ci fib]
+20.2 +15.1 72 +24 +24 комфорт 1007.8 996.6 +24.5
21 16.07 штиль 0 10 км ясно +14.3 +13.0 92 +14 +14 1008.4 997.0
00 17.07 штиль 0 10 км 4/0
[Ac cast]
+13.5 +12.4 93 +13 +13 1008.0 996.5
06 17.07 СЗ 1 10 км 8/0
[Cs]
+20.4 +13.5 65 +24 +32 комфорт 1007.3 996.1 +10.4
12 17.07 ЮЗ 3 10 км 4/0
[Ac trans Ci fib]
+21.9 +12.4 55 +24 +33 комфорт 1007.1 996.0
18 17.07 З 5 10 км 10/10 600 м
[Cb calv]
+19.7 +13.8 69 +21 +21 комфорт 1007.8 996.6 +24.5
00 18.07 СЗ 1 10 км {ливн. осадки} ясно +12.4 +10.1 86 +12 +12 1008.5 997.0
06 18.07 ЮЗ 1 10 км 9/9 600 м
[Cb calv]
+17.7 +15.5 87 +19 +20 1009.9 998.6 +11.1 1
12 18.07 СЗ 3 10 км 4/4 600 м
[Cu med, cong]
+22.5 +10.3 46 +24 +31 комфорт 1009.9 998.8
18 18.07 З 1 10 км 3/0
[Ci fib]
+19.3 +12.7 66 +22 +22 комфорт 1011.7 1000.4 +24.2
06 19.07 штиль 0 10 км 6/0
[Ci]
+20.1 +14.1 68 +22 +31 комфорт 1015.2 1003.9 +11.3

 

Местоположение метеостанции Золотоноша (Черкасская область, Украина): широта 49.68 долгота 32.03 высота над уровнем моря 96 м.

В архиве по умолчанию представлена погода в Золотоноше за последнюю неделю. Архивные данные за месяц целиком и за предыдущие месяцы, начиная с января 2011 года, Вы можете получить, выбрав интересующий диапазон дат из раскрывающегося списка и нажав кнопку "Ввод!".


*Определитесь, кто Вы:
робот инопланетянин человек

Внимание! Время в таблицах - всемирное. Для получения местного времени необходимо прибавить поправку, которая равна 2 ч.

Смотрите также архив погоды в соседних городах и на ближайших метеорологических станциях:

Погода в Черкассах (Черкасская область, Украина) (29 км)
Погода в Каневе (Черкасская область, Украина) (37 км)
Погода в Яготине (Киевская область, Украина) (62 км)
Погода в Ротмистровке (Черкасская область, Украина) (66 км)
Погода в Мироновке (Киевская область, Украина) (74 км)
Погода в Лубнах (Полтавская область, Украина) (79 км)
Погода в Чигирине (Черкасская область, Украина) (81 км)
Погода в Веселом Подоле (Полтавская область, Украина) (90 км)
Погода в Барышевке (Киевская область, Украина) (92 км)
Погода в Прилуках (Черниговская область, Украина) (103 км)

Пояснения к столбцам:

Ветер - указаны скорость ветра в м/с - средняя за 10 мин, порывы в срок и между сроками (в фигурных скобках) и направление, откуда дует ветер: С - северный, СВ - северо-восточный, В - восточный, ЮВ - юго-восточный, Ю - южный, ЮЗ - юго-западный, З - западный, СЗ - северо-западный.
Видимость - горизонтальная дальность видимости в метрах или километрах. При видимости от 1 до 10 км при отсутствии осадков обычно наблюдается дымка, при ухудшении видимости до 1 км и менее - туман. В сухую погоду видимость может ухудшаться дымом, пылью или мглою.
Явления - указаны атмосферные явления, наблюдавшиеся в срок или в последний час перед сроком; фигурными скобками обозначены явления, наблюдавшиеся между сроками (за 1-3 часа до срока); квадратными скобками обозначены град или гололедные отложения с указанием их диаметра в мм.
Облачность - указаны через наклонную черту общая и нижняя облачность в баллах и высота нижней границы облаков в метрах; квадратными скобками обозначены формы облаков: Ci - перистые, Cs - перисто-слоистые, Cc - перисто-кучевые, Ac - высококучевые, As - высокослоистые, Sc - слоисто-кучевые, Ns - слоисто-дождевые, Cu - кучевые, Cb - кучево-дождевые. Подробнее классификацию облаков см. в Атласе облаков (PDF).
T - Температура воздуха - температура, измеренная на высоте 2 м над землей.
Td - Температура точки росы - температура, при понижении до которой содержащийся в воздухе водяной пар достигнет насыщения.
f - Относительная влажность воздуха - влажноcть воздуха, измеренная на высоте 2 м над землей.
Te - Эффективная температура - температура, которую ощущает одетый по сезону человек в тени. Характеристика душности погоды. При расчете учитывается влияние влажности воздуха и скорости ветра на теплоощущения человека.
Tes - Эффективная температура на солнце - температура, которую ощущает человек, с поправкой на солнечный нагрев. Характеристика знойности погоды. Зависит от высоты солнца над горизонтом, облачности и скорости ветра. Ночью, в пасмурную погоду, а также при ветре 12 м/с и более поправка равна нулю.
P - Атмосферное давление - приведенное к уровню моря атмосферное давление.
Po - Атмосферное давление - измеренное на уровне метеостанции атмосферное давление.
Tmin - Минимальная температура - минимум температуры воздуха на высоте 2 м над землей.
Tmax - Максимальная температура - максимум температуры воздуха на высоте 2 м над землей.
R - Количество осадков - Количество выпавших осадков за период времени, мм. При наведении курсора мыши на число - период времени, за который выпало указанное количество осадков.
R24 - Количество осадков - Количество выпавших осадков за 24 часа, мм.
S - Снежный покров - Высота снежного покрова, см. При наведении курсора мыши на число - состояние снежного покрова и степень покрытия местности в баллах.